Lid_Strength_Index
3 3 3 3 3 4 4 4 3 4 4 4 4 4 4 4 4 3 3 3 3 3 3 3 2 2 1 4 3 -0 -1 -1 -0 0 2 3 4 5 7 5 5 6 5 5 4 4 4
4 4 4 4 4 3 3 4 4 4 4 4 4 4 4 4 4 3 3 3 4 3 3 2 2 2 2 5 -0 -1 -0 0 0 1 2 2 3 3 5 5 6 5 5 5 5 5 4
3 3 3 3 3 4 4 4 4 4 4 4 4 4 4 4 4 4 4 4 4 4 3 2 1 1 4 3 -0 -1 -0 0 0 1 2 2 2 3 4 6 4 5 7 6 5 5 6
3 3 3 3 4 4 4 4 4 3 3 4 4 4 4 4 4 4 4 4 4 3 2 1 0 1 4 2 -1 0 -0 1 0 0 2 1 1 3 4 3 5 6 6 10 6 6 5
3 3 3 4 4 4 4 4 4 4 4 3 4 4 4 4 4 4 5 5 4 2 0 1 1 2 5 2 3 0 -0 2 1 1 1 1 2 4 4 6 8 9 13 9 8 5 6
3 3 4 4 3 4 4 4 4 4 4 4 4 4 4 4 4 5 5 5 2 2 0 -0 1 5 4 5 3 2 -0 1 2 2 3 3 4 6 6 9 17 12 10 9 9 7 6
3 3 3 3 3 4 4 4 4 4 4 4 4 4 4 4 5 5 4 1 2 3 2 4 4 5 5 2 2 2 3 1 2 3 6 4 7 9 8 8 9 8 9 9 8 6 7
3 3 3 3 3 4 4 4 4 4 4 4 5 5 5 5 5 5 4 2 4 4 5 3 3 4 3 2 4 3 3 4 5 6 5 6 8 7 6 6 7 7 9 10 7 6 7
3 3 3 3 4 4 4 3 4 4 4 5 5 5 5 5 6 5 2 3 2 2 5 4 4 4 4 3 4 3 3 4 4 6 6 7 7 5 6 7 7 7 9 9 10 7 7
3 3 3 4 4 3 4 4 4 4 4 4 4 5 6 6 6 4 3 2 2 2 7 6 5 4 4 3 5 2 2 3 4 6 6 6 5 6 6 7 6 10 7 7 8 10 12
3 3 3 3 3 3 4 4 4 4 4 4 4 4 5 6 5 5 3 2 1 2 11 5 5 2 3 5 4 4 1 3 5 5 5 7 6 6 7 7 6 12 7 7 8 10 10
3 4 4 4 4 4 4 4 4 4 5 5 5 5 6 4 3 3 3 3 2 8 11 8 5 5 5 5 5 3 3 2 3 5 5 6 4 5 6 5 5 6 7 7 7 9 15
4 4 4 4 4 4 4 4 4 5 5 5 6 6 6 3 4 3 2 3 8 10 6 7 7 6 6 6 6 5 5 5 6 8 8 6 6 5 5 7 6 6 8 12 13 13 19
4 4 4 4 4 4 4 4 5 5 5 6 7 7 5 3 2 2 3 5 10 8 7 6 6 6 7 6 6 5 6 7 5 6 7 9 10 6 5 6 8 7 9 15 17 13 12
4 4 4 4 4 4 4 5 5 5 6 7 8 3 2 1 1 2 5 8 8 7 7 7 6 7 7 6 6 6 6 6 5 5 8 9 9 5 5 5 5 8 12 11 12 9 10
4 4 4 4 4 4 4 5 5 5 6 7 4 4 2 2 1 4 6 9 6 5 6 6 8 6 8 7 7 7 7 5 6 5 4 6 9 6 5 5 5 7 6 12 10 13 15
4 4 4 4 4 4 4 5 5 6 6 7 4 5 2 1 3 7 9 7 6 4 5 6 7 7 7 7 6 7 7 5 5 5 4 5 7 8 6 7 7 7 8 8 9 9 13
4 4 4 4 4 4 4 5 5 6 7 6 5 7 2 1 7 6 8 7 9 5 4 5 6 6 6 6 7 7 7 6 4 4 6 5 6 9 8 5 5 6 7 7 11 10 9
4 4 4 4 4 4 4 5 5 6 6 6 7 6 2 3 8 7 5 6 7 7 6 6 6 6 6 6 7 6 6 5 4 5 5 5 7 10 10 7 6 7 6 7 6 10 9
5 5 5 5 4 5 4 5 5 6 6 6 6 9 5 4 5 7 6 6 7 6 7 6 6 5 6 7 6 7 6 5 4 4 2 5 6 8 11 9 7 8 7 6 7 9 9
5 5 5 4 4 4 4 4 5 5 6 5 5 7 5 8 5 5 5 6 7 7 5 6 7 6 7 8 7 7 6 5 5 2 4 5 7 7 7 7 6 7 7 7 8 7 9
5 5 4 4 4 4 4 4 4 5 6 4 7 7 5 7 6 7 7 7 7 6 5 6 8 7 6 7 6 7 6 5 6 5 5 5 7 6 8 8 7 8 7 7 7 6 7
5 5 4 4 4 4 4 4 4 4 4 4 4 4 6 8 7 8 7 7 6 5 5 4 5 6 7 6 5 4 4 4 4 5 5 6 7 7 9 7 7 9 8 7 6 6 6
4 4 4 4 4 3 4 4 3 2 3 3 4 5 7 9 8 8 8 7 7 5 6 5 5 5 4 2 3 4 4 4 4 4 4 6 6 7 9 8 12 7 5 5 6 5 5
4 4 4 4 3 4 4 3 2 2 3 4 4 6 8 10 8 9 8 8 7 6 6 6 5 4 2 4 6 7 7 7 6 5 5 5 6 8 9 9 8 7 6 6 6 6 4
4 4 4 4 4 4 3 2 3 2 3 4 3 1 3 6 6 5 6 6 8 8 7 6 3 3 3 5 7 11 11 8 9 7 5 5 5 7 8 10 12 7 5 4 5 8 4
4 3 4 4 4 2 2 3 3 3 1 2 3 1 2 6 4 4 6 6 4 6 7 6 5 6 4 8 9 10 10 6 9 9 8 7 7 8 8 9 8 5 4 4 9 7 4
4 4 4 4 3 3 3 3 3 2 2 2 2 1 2 5 4 2 3 5 5 5 9 7 7 7 7 9 9 8 9 7 7 7 7 8 9 8 8 9 10 4 4 7 4 3 3
4 5 5 3 2 3 3 3 2 2 2 2 4 0 -1 4 4 1 1 1 1 2 5 5 8 10 7 8 7 7 8 7 7 9 5 8 6 7 7 7 4 3 4 3 3 3 3